EW7157 Weather Reports


time (UTC)temp
C
wind
direction
speed
KPH
gust
KPH
rain 1hr
cm
rain 24hr
cm
rain mn
cm
humidity
%
barometer
mb
20260510175829 26 160 0.0 1.6 0.00 0.25 0.00 43 1035.1
20260510174830 26 248 0.0 0.0 0.00 0.25 0.00 45 1035.1
20260510172929 26 135 0.0 0.0 0.00 0.25 0.00 44 1035.1
20260510171931 25 157 0.0 0.0 0.00 0.25 0.00 46 1035.2
20260510165029 25 221 0.0 0.0 0.00 0.25 0.00 43 1035.1
20260510164029 25 135 0.0 3.2 0.00 0.25 0.00 44 1035.2
20260510161130 25 210 0.0 1.6 0.00 0.25 0.00 50 1035.1
20260510160127 24 180 0.0 0.0 0.00 0.25 0.00 51 1035.1
20260510155130 23 90 0.0 0.0 0.00 0.25 0.00 53 1035.2
20260510154227 23 149 0.0 3.2 0.00 0.25 0.00 52 1035.4
20260510153229 23 202 0.0 0.0 0.00 0.25 0.00 55 1035.4
20260510152328 23 180 0.0 1.6 0.00 0.25 0.00 55 1035.4
20260510150329 22 135 0.0 1.6 0.00 0.25 0.00 59 1035.5
20260510150228 22 135 0.0 0.0 0.00 0.25 0.00 59 1035.5
20260510144228 22 247 0.0 0.0 0.00 0.25 0.00 64 1035.6
20260510144130 22 247 0.0 0.0 0.00 0.25 0.00 65 1035.6
20260510142227 20 90 0.0 0.0 0.00 0.25 0.00 69 1035.5
20260510142129 20 90 0.0 0.0 0.00 0.25 0.00 69 1035.4
20260510142029 20 90 0.0 0.0 0.00 0.25 0.00 70 1035.5
20260510140028 17 112 0.0 0.0 0.00 0.25 0.00 80 1035.6
20260510134129 16 22 0.0 0.0 0.00 0.25 0.00 91 1035.5
20260510134029 16 22 0.0 0.0 0.00 0.25 0.00 92 1035.5
20260510133028 15 135 0.0 0.0 0.00 0.25 0.00 90 1035.5
20260510131929 13 135 0.0 0.0 0.00 0.25 0.00 93 1035.5
20260510130930 13 135 0.0 0.0 0.00 0.25 0.00 95 1035.6
20260510125928 12 135 0.0 0.0 0.00 0.25 0.00 96 1035.7
20260510123928 11 135 0.0 0.0 0.00 0.25 0.00 96 1035.5
20260510121928 11 135 0.0 0.0 0.00 0.25 0.00 97 1035.1
20260510121027 11 135 0.0 0.0 0.00 0.25 0.00 95 1035.2
20260510120029 11 135 0.0 0.0 0.00 0.25 0.00 97 1035.0
20260510115028 11 135 0.0 0.0 0.00 0.25 0.00 97 1035.0
20260510114127 11 135 0.0 0.0 0.00 0.25 0.00 96 1034.8
20260510114027 11 135 0.0 0.0 0.00 0.25 0.00 97 1034.8
20260510113029 11 135 0.0 0.0 0.00 0.25 0.00 97 1034.7
20260510112029 10 135 0.0 0.0 0.00 0.25 0.00 97 1034.6
20260510104030 10 135 0.0 0.0 0.00 0.25 0.00 96 1034.1
20260510103128 10 135 0.0 0.0 0.00 0.25 0.00 96 1034.0
20260510103029 10 135 0.0 0.0 0.00 0.25 0.00 97 1034.0
20260510102027 10 135 0.0 0.0 0.00 0.25 0.00 97 1034.1
20260510100929 10 135 0.0 0.0 0.00 0.25 0.00 97 1034.0
20260510100028 10 135 0.0 0.0 0.00 0.25 0.00 96 1034.0
20260510094927 10 135 0.0 0.0 0.00 0.25 0.00 97 1033.7
20260510094828 10 135 0.0 0.0 0.00 0.25 0.00 97 1033.6
20260510093844 10 135 0.0 0.0 0.00 0.25 0.00 96 1033.8
20260510092928 10 135 0.0 0.0 0.00 0.25 0.00 97 1033.7
20260510091929 10 135 0.0 0.0 0.00 0.25 0.00 97 1033.6
20260510091027 10 135 0.0 0.0 0.00 0.25 0.00 96 1033.7
20260510085931 9 135 0.0 0.0 0.00 0.25 0.00 96 1033.9
20260510085027 9 135 0.0 0.0 0.00 0.25 0.00 97 1033.7
20260510084927 9 135 0.0 1.6 0.00 0.25 0.00 97 1033.9
20260510083928 9 135 0.0 1.6 0.00 0.25 0.00 96 1034.1
20260510082929 9 135 0.0 0.0 0.00 0.25 0.00 95 1033.5
20260510081929 9 180 0.0 0.0 0.00 0.25 0.00 96 1033.2
20260510081843 9 180 0.0 0.0 0.00 0.25 0.00 96 1033.2
20260510080931 9 180 0.0 0.0 0.00 0.25 0.00 96 1033.1
20260510075929 9 180 0.0 0.0 0.00 0.25 0.00 96 1033.1
20260510073928 9 180 0.0 0.0 0.00 0.25 0.00 96 1033.1
20260510072930 9 180 0.0 0.0 0.00 0.25 0.00 96 1033.1
20260510071929 9 180 0.0 0.0 0.00 0.25 0.00 96 1033.2
20260510071028 9 180 0.0 0.0 0.00 0.25 0.00 95 1033.1
20260510070029 9 180 0.0 0.0 0.00 0.25 0.00 95 1032.8
20260510065028 9 180 0.0 0.0 0.00 0.25 0.00 94 1032.6
20260510064044 9 180 0.0 0.0 0.00 0.25 0.00 95 1032.5
20260510063129 9 180 0.0 0.0 0.00 0.25 0.00 95 1032.5
20260510062030 9 180 0.0 0.0 0.00 0.25 0.00 95 1032.5
20260510060928 9 180 0.0 0.0 0.00 0.25 0.00 95 1032.5
20260510055929 9 180 0.0 0.0 0.00 0.25 0.00 95 1032.7
20260510054929 9 180 0.0 0.0 0.00 0.25 0.00 95 1032.7
20260510054827 9 180 0.0 0.0 0.00 0.25 0.00 95 1032.8
20260510053830 9 180 0.0 0.0 0.00 0.25 0.00 95 1033.0
20260510051828 9 180 0.0 0.0 0.00 0.25 0.00 94 1033.1
20260510050830 9 180 0.0 0.0 0.00 0.25 0.00 95 1033.0
20260510045828 9 180 0.0 0.0 0.00 0.25 0.00 95 1033.0
20260510044828 9 180 0.0 0.0 0.00 0.25 0.00 95 1033.2
20260510043829 9 180 0.0 0.0 0.00 0.25 0.00 95 1033.3
20260510042928 9 180 0.0 0.0 0.00 0.25 0.00 95 1033.3
20260510041927 9 180 0.0 0.0 0.00 0.25 0.00 95 1033.3
20260510040929 9 180 0.0 0.0 0.00 0.25 0.00 95 1033.4
20260510040017 10 180 0.0 0.0 0.00 0.25 0.00 94 1033.5
20260510035914 10 180 0.0 0.0 0.00 0.25 0.25 95 1033.5
20260510034916 10 180 0.0 0.0 0.00 0.25 0.25 95 1033.3
20260510033915 10 180 0.0 0.0 0.00 0.25 0.25 95 1033.2
20260510032917 10 180 0.0 0.0 0.00 0.25 0.25 93 1033.1
20260510031915 10 180 0.0 0.0 0.00 0.25 0.25 94 1033.0
20260510030915 10 180 0.0 0.0 0.00 0.25 0.25 94 1032.9
20260510025817 10 180 0.0 0.0 0.00 0.25 0.25 94 1032.9
20260510024817 10 180 0.0 0.0 0.00 0.25 0.25 94 1032.8
20260510023816 10 180 0.0 0.0 0.00 0.25 0.25 94 1032.9
20260510023716 10 180 0.0 0.0 0.00 0.25 0.25 94 1032.9
20260510022716 10 180 0.0 0.0 0.00 0.25 0.25 94 1032.9
20260510021814 10 180 0.0 0.0 0.00 0.25 0.25 94 1032.7
20260510020817 10 180 0.0 0.0 0.00 0.25 0.25 93 1032.9
20260510015816 10 180 0.0 0.0 0.00 0.25 0.25 93 1032.7
20260510014817 11 180 0.0 0.0 0.00 0.25 0.25 92 1032.8
20260510013816 11 180 0.0 0.0 0.00 0.25 0.25 94 1032.8
20260510012816 11 180 0.0 0.0 0.00 0.25 0.25 93 1032.8
20260510011817 11 180 0.0 0.0 0.00 0.25 0.25 92 1032.6
20260510010817 11 180 0.0 0.0 0.00 0.25 0.25 94 1032.8
20260510005914 11 180 0.0 0.0 0.00 0.25 0.25 93 1032.6
20260510005816 11 180 0.0 0.0 0.00 0.25 0.25 93 1032.6
20260510004915 11 180 0.0 0.0 0.00 0.25 0.25 93 1032.3
20260510003916 11 180 0.0 0.0 0.00 0.25 0.25 93 1032.4
20260510001915 12 180 0.0 0.0 0.00 0.25 0.25 92 1032.3
20260510001014 12 180 0.0 0.0 0.00 0.25 0.25 92 1032.3
20260509235917 12 180 0.0 0.0 0.00 0.25 0.25 91 1032.3
20260509235815 12 180 0.0 0.0 0.00 0.25 0.25 92 1032.3
20260509234817 12 180 0.0 0.0 0.00 0.25 0.25 91 1032.4
20260509233816 12 180 0.0 0.0 0.00 0.25 0.25 91 1032.4
20260509232816 12 180 0.0 0.0 0.00 0.25 0.25 90 1032.3
20260509225914 13 180 0.0 0.0 0.00 0.25 0.25 91 1032.2
20260509225817 13 180 0.0 0.0 0.00 0.25 0.25 91 1032.3
20260509224915 13 180 0.0 0.0 0.00 0.25 0.25 91 1032.2
20260509223918 13 180 0.0 0.0 0.00 0.25 0.25 91 1032.3
20260509222915 13 180 0.0 0.0 0.00 0.25 0.25 90 1032.3
20260509215915 13 180 0.0 0.0 0.03 0.25 0.25 89 1032.4
20260509215816 13 180 0.0 0.0 0.03 0.25 0.25 89 1032.3
20260509214817 13 180 0.0 0.0 0.23 0.25 0.25 88 1032.4
20260509212816 13 180 0.0 0.0 0.23 0.25 0.25 88 1032.7
20260509211915 13 180 0.0 0.0 0.23 0.25 0.25 89 1032.8
20260509210915 13 180 0.0 0.0 0.20 0.23 0.23 89 1032.6
20260509205918 13 180 0.0 0.0 0.23 0.23 0.23 85 1032.5
20260509205817 13 180 0.0 0.0 0.23 0.23 0.23 85 1032.5
20260509204816 13 180 0.0 0.0 0.03 0.03 0.03 84 1032.6
20260509202917 14 180 0.0 0.0 0.03 0.03 0.03 81 1032.4
20260509201915 14 180 0.0 0.0 0.03 0.03 0.03 82 1032.5
20260509200916 14 112 0.0 0.0 0.03 0.03 0.00 82 1032.3
20260509200816 14 112 0.0 0.0 0.00 0.00 0.00 82 1032.3
20260509195914 14 180 0.0 0.0 0.00 0.00 0.00 80 1032.6
20260509194918 14 135 0.0 3.2 0.00 0.00 0.00 79 1032.8
20260509193916 14 90 0.0 0.0 0.00 0.00 0.00 79 1032.8
20260509191915 14 135 0.0 1.6 0.00 0.00 0.00 80 1033.3
20260509190916 15 135 0.0 1.6 0.00 0.00 0.00 80 1033.5
20260509185917 15 180 0.0 0.0 0.00 0.00 0.00 79 1033.2
20260509184915 15 157 0.0 0.0 0.00 0.00 0.00 77 1033.3
20260509184816 15 163 1.6 3.2 0.00 0.00 0.00 77 1033.3
20260509183816 15 135 0.0 1.6 0.00 0.00 0.00 76 1033.5
20260509182817 15 135 0.0 0.0 0.00 0.00 0.00 74 1033.6
20260509181817 15 135 0.0 1.6 0.00 0.00 0.00 72 1033.7
20260509180915 16 180 0.0 1.6 0.00 0.00 0.00 71 1033.7